Location: Home
(42.5358°N, 72.7383°W)
Time: 00:04:38
(UTC-05:00)

Vanguard 1 - Pass Details

Date: 08 December 2021
Orbit: 652 x 3830 km, 34.2° (Epoch: 21 January)

Event Time Altitude Azimuth Distance (km) Brightness Sun altitude
Rises 20:51:17 0° 213° (SSW) 6,010 14.2 -49.4°
Reaches altitude 10° 20:55:04 10° 206° (SSW) 5,382 13.8 -50.1°
Enters shadow 21:01:02 26° 189° (S) 4,666 13.3 -51.1°
Maximum altitude 21:10:56 41° 142° (SE) 4,465 - -52.8°
Drops below altitude 10° 21:31:28 10° 83° (E) 6,897 - -56.3°
Sets 21:37:05 0° 77° (ENE) 7,789 - -57.3°
